アトラス彗星

P/2017 S5 ( ATLAS )

English version
Home page
Updated on January 8, 2018

---------------------------------------------------------------------

・ プロフィール

発見日 2017年9月27日
発見光度 18.2等
発見者 Asteroid Terrestrial-impact Last Alert System (ATLAS) search program

・ 写真集

・ 軌道要素

Epoch 2017 July 26.0 TT = JDT 2457960.5
T 2017 July 27.97143 TT                                 MPCW
q   2.1781464            (2000.0)            P               Q
n   0.17456045     Peri.   99.92248     +0.97101506     +0.13720582
a   3.1708241      Node   252.39371     -0.19730330     +0.92229926
e   0.3130662      Incl.   11.84901     +0.13491170     +0.36130131
P   5.65
From 288 observations 2017 Sept. 1-Nov. 27, mean residual 0".5.

・ 光度変化

        m1 = 13.5 + 5 logΔ + 10.0 log r

---------------------------------------------------------------------

軌道要素はM.P.E.C. 2017-X08に掲載されたものです。
光度グラフはComet for Windowsで作成したものです。

---------------------------------------------------------------------

Copyright(C) Seiichi Yoshida (comet@aerith.net). All rights reserved.